Wetterdaten: Sonntag, 17.03.2013
Datum Zeit Temperatur Luftfeuchte Luftdruck Regen Wind Richtung Richtung Sonnenschein ET UV Solar Taupunkt Windchill Windben
17.03.2013 00:00 2,3 C 56 % 1008,2 hPa 0,0 l/m 10,6 km/h (2 Bft) O 92 0 min 0,000 mm 0,0 UV-I 0 W/m -5,6 C -1,4 C 17,7 km/h (3 Bft)
17.03.2013 00:05 2,3 C 56 % 1008,2 hPa 0,0 l/m 8,5 km/h (2 Bft) O-SO 109 0 min 0,000 mm 0,0 UV-I 0 W/m -5,6 C 0,3 C 16,1 km/h (3 Bft)
17.03.2013 00:10 2,2 C 56 % 1008,2 hPa 0,0 l/m 6,2 km/h (2 Bft) O 80 0 min 0,000 mm 0,0 UV-I 0 W/m -5,6 C 2,2 C 12,9 km/h (3 Bft)
17.03.2013 00:15 2,1 C 56 % 1008,1 hPa 0,0 l/m 6,8 km/h (2 Bft) O 90 0 min 0,000 mm 0,0 UV-I 0 W/m -5,7 C 1,7 C 17,7 km/h (3 Bft)
17.03.2013 00:20 2,1 C 56 % 1008,0 hPa 0,0 l/m 6,0 km/h (2 Bft) O 81 0 min 0,000 mm 0,0 UV-I 0 W/m -5,7 C 2,1 C 12,9 km/h (3 Bft)
17.03.2013 00:25 2,1 C 57 % 1008,0 hPa 0,0 l/m 7,1 km/h (2 Bft) O 100 0 min 0,000 mm 0,0 UV-I 0 W/m -5,5 C 1,4 C 12,9 km/h (3 Bft)
17.03.2013 00:30 2,0 C 57 % 1008,0 hPa 0,0 l/m 6,2 km/h (2 Bft) O-NO 77 0 min 0,000 mm 0,0 UV-I 0 W/m -5,6 C 2,0 C 14,5 km/h (3 Bft)
17.03.2013 00:35 2,1 C 56 % 1008,1 hPa 0,0 l/m 8,5 km/h (2 Bft) O-SO 103 0 min 0,000 mm 0,0 UV-I 0 W/m -5,7 C 0,1 C 16,1 km/h (3 Bft)
17.03.2013 00:40 2,1 C 56 % 1008,0 hPa 0,0 l/m 7,0 km/h (2 Bft) O 95 0 min 0,000 mm 0,0 UV-I 0 W/m -5,7 C 1,5 C 12,9 km/h (3 Bft)
17.03.2013 00:45 2,1 C 57 % 1008,0 hPa 0,0 l/m 4,0 km/h (1 Bft) O 100 0 min 0,000 mm 0,0 UV-I 0 W/m -5,5 C 2,1 C 11,3 km/h (2 Bft)
17.03.2013 00:50 1,9 C 57 % 1008,0 hPa 0,0 l/m 5,0 km/h (1 Bft) O-SO 103 0 min 0,000 mm 0,0 UV-I 0 W/m -5,7 C 1,9 C 16,1 km/h (3 Bft)
17.03.2013 00:55 1,9 C 57 % 1007,9 hPa 0,0 l/m 5,8 km/h (2 Bft) O 95 0 min 0,000 mm 0,0 UV-I 0 W/m -5,7 C 1,9 C 14,5 km/h (3 Bft)
17.03.2013 01:00 1,8 C 57 % 1007,9 hPa 0,0 l/m 5,5 km/h (1 Bft) SO 133 0 min 0,000 mm 0,0 UV-I 0 W/m -5,8 C 1,8 C 11,3 km/h (2 Bft)
17.03.2013 01:05 1,8 C 57 % 1007,8 hPa 0,0 l/m 6,0 km/h (2 Bft) O-SO 107 0 min 0,025 mm 0,0 UV-I 0 W/m -5,8 C 1,8 C 14,5 km/h (3 Bft)
17.03.2013 01:10 1,8 C 57 % 1007,8 hPa 0,0 l/m 7,9 km/h (2 Bft) NO 51 0 min 0,000 mm 0,0 UV-I 0 W/m -5,8 C 0,3 C 14,5 km/h (3 Bft)
17.03.2013 01:15 1,8 C 57 % 1007,8 hPa 0,0 l/m 6,4 km/h (2 Bft) O-SO 109 0 min 0,000 mm 0,0 UV-I 0 W/m -5,8 C 1,8 C 12,9 km/h (3 Bft)
17.03.2013 01:20 1,8 C 57 % 1007,7 hPa 0,0 l/m 7,9 km/h (2 Bft) O-NO 74 0 min 0,000 mm 0,0 UV-I 0 W/m -5,8 C 0,3 C 14,5 km/h (3 Bft)
17.03.2013 01:25 1,7 C 58 % 1007,6 hPa 0,0 l/m 6,0 km/h (2 Bft) O-NO 67 0 min 0,000 mm 0,0 UV-I 0 W/m -5,7 C 1,7 C 12,9 km/h (3 Bft)
17.03.2013 01:30 1,7 C 58 % 1007,6 hPa 0,0 l/m 8,2 km/h (2 Bft) O 81 0 min 0,000 mm 0,0 UV-I 0 W/m -5,7 C -0,0 C 14,5 km/h (3 Bft)
17.03.2013 01:35 1,7 C 58 % 1007,6 hPa 0,0 l/m 8,0 km/h (2 Bft) O-NO 78 0 min 0,000 mm 0,0 UV-I 0 W/m -5,7 C 0,1 C 16,1 km/h (3 Bft)
17.03.2013 01:40 1,7 C 58 % 1007,6 hPa 0,0 l/m 7,6 km/h (2 Bft) O-SO 109 0 min 0,000 mm 0,0 UV-I 0 W/m -5,7 C 0,5 C 16,1 km/h (3 Bft)
17.03.2013 01:45 1,6 C 58 % 1007,5 hPa 0,0 l/m 6,5 km/h (2 Bft) O-NO 63 0 min 0,000 mm 0,0 UV-I 0 W/m -5,8 C 1,5 C 14,5 km/h (3 Bft)
17.03.2013 01:50 1,6 C 59 % 1007,5 hPa 0,0 l/m 7,5 km/h (2 Bft) O-SO 106 0 min 0,000 mm 0,0 UV-I 0 W/m -5,5 C 0,5 C 14,5 km/h (3 Bft)
17.03.2013 01:55 1,6 C 59 % 1007,5 hPa 0,0 l/m 6,5 km/h (2 Bft) O 93 0 min 0,000 mm 0,0 UV-I 0 W/m -5,5 C 1,5 C 12,9 km/h (3 Bft)
17.03.2013 02:00 1,7 C 58 % 1007,5 hPa 0,0 l/m 8,9 km/h (2 Bft) O 80 0 min 0,000 mm 0,0 UV-I 0 W/m -5,7 C -0,7 C 17,7 km/h (3 Bft)
17.03.2013 02:05 1,7 C 58 % 1007,4 hPa 0,0 l/m 6,8 km/h (2 Bft) O 86 0 min 0,026 mm 0,0 UV-I 0 W/m -5,7 C 1,3 C 12,9 km/h (3 Bft)
17.03.2013 02:10 1,7 C 59 % 1007,3 hPa 0,0 l/m 6,5 km/h (2 Bft) O 91 0 min 0,000 mm 0,0 UV-I 0 W/m -5,4 C 1,6 C 14,5 km/h (3 Bft)
17.03.2013 02:15 1,7 C 59 % 1007,2 hPa 0,0 l/m 6,6 km/h (2 Bft) O 90 0 min 0,000 mm 0,0 UV-I 0 W/m -5,4 C 1,5 C 12,9 km/h (3 Bft)
17.03.2013 02:20 1,6 C 59 % 1007,2 hPa 0,0 l/m 6,5 km/h (2 Bft) O-NO 69 0 min 0,000 mm 0,0 UV-I 0 W/m -5,5 C 1,5 C 12,9 km/h (3 Bft)
17.03.2013 02:25 1,6 C 60 % 1007,0 hPa 0,0 l/m 6,9 km/h (2 Bft) O-NO 68 0 min 0,000 mm 0,0 UV-I 0 W/m -5,3 C 1,1 C 12,9 km/h (3 Bft)
17.03.2013 02:30 1,6 C 60 % 1006,9 hPa 0,0 l/m 8,8 km/h (2 Bft) O-NO 57 0 min 0,000 mm 0,0 UV-I 0 W/m -5,3 C -0,7 C 19,3 km/h (3 Bft)
17.03.2013 02:35 1,6 C 60 % 1006,8 hPa 0,0 l/m 10,4 km/h (2 Bft) NO 48 0 min 0,000 mm 0,0 UV-I 0 W/m -5,3 C -2,0 C 16,1 km/h (3 Bft)
17.03.2013 02:40 1,6 C 60 % 1006,6 hPa 0,0 l/m 8,2 km/h (2 Bft) O 98 0 min 0,000 mm 0,0 UV-I 0 W/m -5,3 C -0,2 C 20,9 km/h (4 Bft)
17.03.2013 02:45 1,7 C 61 % 1006,5 hPa 0,0 l/m 8,1 km/h (2 Bft) SO 126 0 min 0,000 mm 0,0 UV-I 0 W/m -5,0 C 0,0 C 16,1 km/h (3 Bft)
17.03.2013 02:50 1,7 C 62 % 1006,4 hPa 0,0 l/m 9,0 km/h (2 Bft) O-SO 104 0 min 0,000 mm 0,0 UV-I 0 W/m -4,8 C -0,8 C 17,7 km/h (3 Bft)
17.03.2013 02:55 1,6 C 64 % 1006,3 hPa 0,0 l/m 9,7 km/h (2 Bft) O-NO 71 0 min 0,000 mm 0,0 UV-I 0 W/m -4,5 C -1,4 C 17,7 km/h (3 Bft)
17.03.2013 03:00 1,3 C 67 % 1006,4 hPa 0,0 l/m 11,2 km/h (2 Bft) O-SO 107 0 min 0,000 mm 0,0 UV-I 0 W/m -4,1 C -2,9 C 20,9 km/h (4 Bft)
17.03.2013 03:05 1,2 C 70 % 1006,3 hPa 0,0 l/m 8,7 km/h (2 Bft) O 84 0 min 0,025 mm 0,0 UV-I 0 W/m -3,7 C -1,0 C 19,3 km/h (3 Bft)
17.03.2013 03:10 0,9 C 75 % 1006,1 hPa 0,0 l/m 6,2 km/h (2 Bft) O 88 0 min 0,000 mm 0,0 UV-I 0 W/m -3,0 C 0,9 C 14,5 km/h (3 Bft)
17.03.2013 03:15 0,6 C 78 % 1006,2 hPa 0,0 l/m 8,0 km/h (2 Bft) O 87 0 min 0,000 mm 0,0 UV-I 0 W/m -2,8 C -1,0 C 16,1 km/h (3 Bft)
17.03.2013 03:20 0,4 C 80 % 1006,1 hPa 0,0 l/m 5,6 km/h (1 Bft) O-NO 63 0 min 0,000 mm 0,0 UV-I 0 W/m -2,6 C 0,4 C 12,9 km/h (3 Bft)
17.03.2013 03:25 0,3 C 81 % 1006,0 hPa 0,0 l/m 4,6 km/h (1 Bft) O-NO 65 0 min 0,000 mm 0,0 UV-I 0 W/m -2,6 C 0,3 C 12,9 km/h (3 Bft)
17.03.2013 03:30 0,3 C 82 % 1006,0 hPa 0,0 l/m 3,3 km/h (1 Bft) O-NO 65 0 min 0,000 mm 0,0 UV-I 0 W/m -2,4 C 0,3 C 8,0 km/h (2 Bft)
17.03.2013 03:35 0,2 C 82 % 1005,9 hPa 0,0 l/m 4,4 km/h (1 Bft) O-NO 58 0 min 0,000 mm 0,0 UV-I 0 W/m -2,5 C 0,2 C 11,3 km/h (2 Bft)
17.03.2013 03:40 0,2 C 82 % 1006,0 hPa 0,0 l/m 1,4 km/h (1 Bft) NO 54 0 min 0,000 mm 0,0 UV-I 0 W/m -2,5 C 0,2 C 4,8 km/h (1 Bft)
17.03.2013 03:45 0,2 C 82 % 1005,8 hPa 0,0 l/m 1,4 km/h (1 Bft) NO 55 0 min 0,000 mm 0,0 UV-I 0 W/m -2,5 C 0,2 C 4,8 km/h (1 Bft)
17.03.2013 03:50 0,2 C 83 % 1005,7 hPa 0,0 l/m 0,7 km/h (0 Bft) NO 55 0 min 0,000 mm 0,0 UV-I 0 W/m -2,3 C 0,2 C 3,2 km/h (1 Bft)
17.03.2013 03:55 0,3 C 83 % 1005,7 hPa 0,0 l/m 0,5 km/h (0 Bft) NO 40 0 min 0,000 mm 0,0 UV-I 0 W/m -2,2 C 0,3 C 4,8 km/h (1 Bft)
17.03.2013 04:00 0,3 C 82 % 1005,7 hPa 0,0 l/m 0,9 km/h (0 Bft) O-NO 59 0 min 0,000 mm 0,0 UV-I 0 W/m -2,4 C 0,3 C 4,8 km/h (1 Bft)
17.03.2013 04:05 0,3 C 81 % 1005,6 hPa 0,0 l/m 0,5 km/h (0 Bft) O-NO 59 0 min 0,026 mm 0,0 UV-I 0 W/m -2,6 C 0,3 C 3,2 km/h (1 Bft)
17.03.2013 04:10 0,4 C 80 % 1005,6 hPa 0,0 l/m 1,1 km/h (1 Bft) O-NO 61 0 min 0,000 mm 0,0 UV-I 0 W/m -2,6 C 0,4 C 3,2 km/h (1 Bft)
17.03.2013 04:15 0,4 C 81 % 1005,4 hPa 0,0 l/m 3,6 km/h (1 Bft) NO 50 0 min 0,000 mm 0,0 UV-I 0 W/m -2,5 C 0,4 C 11,3 km/h (2 Bft)
17.03.2013 04:20 0,5 C 82 % 1005,2 hPa 0,0 l/m 5,5 km/h (1 Bft) O 83 0 min 0,000 mm 0,0 UV-I 0 W/m -2,2 C 0,5 C 12,9 km/h (3 Bft)
17.03.2013 04:25 0,4 C 84 % 1005,1 hPa 0,0 l/m 6,6 km/h (2 Bft) O-NO 67 0 min 0,000 mm 0,0 UV-I 0 W/m -2,0 C 0,2 C 11,3 km/h (2 Bft)
17.03.2013 04:30 0,4 C 85 % 1005,2 hPa 0,0 l/m 5,5 km/h (1 Bft) O-NO 65 0 min 0,000 mm 0,0 UV-I 0 W/m -1,8 C 0,4 C 11,3 km/h (2 Bft)
17.03.2013 04:35 0,3 C 85 % 1005,0 hPa 0,0 l/m 6,9 km/h (2 Bft) O-NO 77 0 min 0,000 mm 0,0 UV-I 0 W/m -1,9 C -0,2 C 12,9 km/h (3 Bft)
17.03.2013 04:40 0,3 C 85 % 1005,0 hPa 0,0 l/m 9,0 km/h (2 Bft) O-NO 70 0 min 0,000 mm 0,0 UV-I 0 W/m -1,9 C -2,3 C 14,5 km/h (3 Bft)
17.03.2013 04:45 0,3 C 86 % 1004,8 hPa 0,0 l/m 6,9 km/h (2 Bft) O-NO 76 0 min 0,000 mm 0,0 UV-I 0 W/m -1,8 C -0,2 C 14,5 km/h (3 Bft)
17.03.2013 04:50 0,2 C 87 % 1004,8 hPa 0,0 l/m 7,5 km/h (2 Bft) O 94 0 min 0,000 mm 0,0 UV-I 0 W/m -1,7 C -0,9 C 14,5 km/h (3 Bft)
17.03.2013 04:55 0,2 C 87 % 1004,8 hPa 0,0 l/m 8,2 km/h (2 Bft) O-NO 67 0 min 0,000 mm 0,0 UV-I 0 W/m -1,7 C -1,6 C 17,7 km/h (3 Bft)
17.03.2013 05:00 0,2 C 87 % 1004,7 hPa 0,0 l/m 6,1 km/h (2 Bft) O 92 0 min 0,000 mm 0,0 UV-I 0 W/m -1,7 C 0,2 C 12,9 km/h (3 Bft)
17.03.2013 05:05 0,2 C 87 % 1004,6 hPa 0,0 l/m 10,3 km/h (2 Bft) O-NO 71 0 min 0,000 mm 0,0 UV-I 0 W/m -1,7 C -3,5 C 16,1 km/h (3 Bft)
17.03.2013 05:10 0,2 C 86 % 1004,6 hPa 0,0 l/m 9,6 km/h (2 Bft) NO 51 0 min 0,000 mm 0,0 UV-I 0 W/m -1,9 C -2,9 C 16,1 km/h (3 Bft)
17.03.2013 05:15 0,3 C 84 % 1004,6 hPa 0,0 l/m 9,3 km/h (2 Bft) O-NO 67 0 min 0,000 mm 0,0 UV-I 0 W/m -2,1 C -2,5 C 19,3 km/h (3 Bft)
17.03.2013 05:20 0,3 C 82 % 1004,5 hPa 0,0 l/m 7,3 km/h (2 Bft) NO 53 0 min 0,000 mm 0,0 UV-I 0 W/m -2,4 C -0,6 C 16,1 km/h (3 Bft)
17.03.2013 05:25 0,4 C 81 % 1004,5 hPa 0,0 l/m 6,0 km/h (2 Bft) O-NO 69 0 min 0,000 mm 0,0 UV-I 0 W/m -2,5 C 0,4 C 12,9 km/h (3 Bft)
17.03.2013 05:30 0,4 C 80 % 1004,5 hPa 0,0 l/m 4,8 km/h (1 Bft) O 84 0 min 0,000 mm 0,0 UV-I 0 W/m -2,6 C 0,4 C 11,3 km/h (2 Bft)
17.03.2013 05:35 0,4 C 79 % 1004,5 hPa 0,0 l/m 4,9 km/h (1 Bft) O-NO 65 0 min 0,000 mm 0,0 UV-I 0 W/m -2,8 C 0,4 C 9,7 km/h (2 Bft)
17.03.2013 05:40 0,5 C 79 % 1004,6 hPa 0,0 l/m 3,4 km/h (1 Bft) O-NO 69 0 min 0,000 mm 0,0 UV-I 0 W/m -2,7 C 0,5 C 9,7 km/h (2 Bft)
17.03.2013 05:45 0,5 C 78 % 1004,8 hPa 0,0 l/m 1,7 km/h (1 Bft) O 83 0 min 0,000 mm 0,0 UV-I 0 W/m -2,9 C 0,5 C 4,8 km/h (1 Bft)
17.03.2013 05:50 0,5 C 78 % 1004,7 hPa 0,0 l/m 1,3 km/h (1 Bft) NO 53 0 min 0,000 mm 0,0 UV-I 0 W/m -2,9 C 0,5 C 4,8 km/h (1 Bft)
17.03.2013 05:55 0,5 C 79 % 1004,8 hPa 0,0 l/m 1,2 km/h (1 Bft) NO 34 0 min 0,000 mm 0,0 UV-I 0 W/m -2,7 C 0,5 C 4,8 km/h (1 Bft)
17.03.2013 06:00 0,6 C 77 % 1004,9 hPa 0,0 l/m 0,7 km/h (0 Bft) O-SO 104 0 min 0,000 mm 0,0 UV-I 0 W/m -3,0 C 0,6 C 4,8 km/h (1 Bft)
17.03.2013 06:05 0,6 C 77 % 1004,8 hPa 0,0 l/m 0,5 km/h (0 Bft) O-SO 104 0 min 0,025 mm 0,0 UV-I 0 W/m -3,0 C 0,6 C 3,2 km/h (1 Bft)
17.03.2013 06:10 0,7 C 76 % 1004,8 hPa 0,0 l/m 2,3 km/h (1 Bft) O 87 0 min 0,000 mm 0,0 UV-I 0 W/m -3,0 C 0,7 C 9,7 km/h (2 Bft)
17.03.2013 06:15 0,2 C 80 % 1004,8 hPa 0,0 l/m 11,2 km/h (2 Bft) O-SO 107 0 min 0,000 mm 0,0 UV-I 0 W/m -2,8 C -4,2 C 19,3 km/h (3 Bft)
17.03.2013 06:20 -0,4 C 85 % 1004,9 hPa 0,0 l/m 6,6 km/h (2 Bft) O-SO 106 0 min 0,000 mm 0,0 UV-I 0 W/m -2,6 C -0,6 C 14,5 km/h (3 Bft)
17.03.2013 06:25 -0,8 C 88 % 1004,8 hPa 0,0 l/m 11,2 km/h (2 Bft) O 88 0 min 0,000 mm 0,0 UV-I 0 W/m -2,5 C -5,3 C 17,7 km/h (3 Bft)
17.03.2013 06:30 -0,9 C 90 % 1004,7 hPa 0,0 l/m 6,8 km/h (2 Bft) O-NO 62 0 min 0,000 mm 0,0 UV-I 0 W/m -2,3 C -1,3 C 12,9 km/h (3 Bft)
17.03.2013 06:35 -1,1 C 91 % 1004,7 hPa 0,0 l/m 6,7 km/h (2 Bft) O 88 0 min 0,000 mm 0,0 UV-I 0 W/m -2,4 C -1,4 C 14,5 km/h (3 Bft)
17.03.2013 06:40 -1,1 C 91 % 1004,8 hPa 0,0 l/m 6,9 km/h (2 Bft) NO 43 0 min 0,000 mm 0,0 UV-I 0 W/m -2,4 C -1,6 C 14,5 km/h (3 Bft)
17.03.2013 06:45 -1,2 C 91 % 1004,7 hPa 0,2 l/m 9,1 km/h (2 Bft) O-NO 77 0 min 0,000 mm 0,0 UV-I 0 W/m -2,5 C -4,0 C 14,5 km/h (3 Bft)
17.03.2013 06:50 -1,2 C 92 % 1004,6 hPa 0,0 l/m 7,3 km/h (2 Bft) O 96 0 min 0,000 mm 0,0 UV-I 0 W/m -2,3 C -2,2 C 16,1 km/h (3 Bft)
17.03.2013 06:55 -1,2 C 92 % 1004,6 hPa 0,0 l/m 6,8 km/h (2 Bft) O 80 0 min 0,000 mm 0,0 UV-I 0 W/m -2,3 C -1,6 C 12,9 km/h (3 Bft)
17.03.2013 07:00 -1,2 C 92 % 1004,7 hPa 0,0 l/m 5,9 km/h (2 Bft) O-NO 69 0 min 0,000 mm 0,0 UV-I 0 W/m -2,3 C -1,2 C 14,5 km/h (3 Bft)
17.03.2013 07:05 -1,1 C 92 % 1004,7 hPa 0,0 l/m 7,4 km/h (2 Bft) O-NO 72 0 min 0,000 mm 0,0 UV-I 5 W/m -2,2 C -2,2 C 12,9 km/h (3 Bft)
17.03.2013 07:10 -1,1 C 92 % 1004,6 hPa 0,0 l/m 6,5 km/h (2 Bft) O-NO 66 0 min 0,000 mm 0,0 UV-I 5 W/m -2,2 C -1,2 C 11,3 km/h (2 Bft)
17.03.2013 07:15 -1,1 C 93 % 1004,6 hPa 0,0 l/m 6,5 km/h (2 Bft) O-NO 59 0 min 0,000 mm 0,0 UV-I 7 W/m -2,1 C -1,2 C 12,9 km/h (3 Bft)
17.03.2013 07:20 -1,1 C 92 % 1004,5 hPa 0,2 l/m 8,4 km/h (2 Bft) NO 43 0 min 0,000 mm 0,0 UV-I 11 W/m -2,2 C -3,2 C 16,1 km/h (3 Bft)
17.03.2013 07:25 -1,2 C 93 % 1004,4 hPa 0,0 l/m 7,3 km/h (2 Bft) NO 53 0 min 0,000 mm 0,0 UV-I 12 W/m -2,2 C -2,2 C 14,5 km/h (3 Bft)
17.03.2013 07:30 -1,1 C 93 % 1004,4 hPa 0,0 l/m 6,2 km/h (2 Bft) NO 51 0 min 0,000 mm 0,0 UV-I 14 W/m -2,1 C -1,1 C 11,3 km/h (2 Bft)
17.03.2013 07:35 -1,1 C 93 % 1004,4 hPa 0,0 l/m 7,3 km/h (2 Bft) O-NO 59 0 min 0,000 mm 0,0 UV-I 16 W/m -2,1 C -2,1 C 14,5 km/h (3 Bft)
17.03.2013 07:40 -1,1 C 93 % 1004,4 hPa 0,0 l/m 6,3 km/h (2 Bft) NO 34 0 min 0,000 mm 0,0 UV-I 19 W/m -2,1 C -1,1 C 14,5 km/h (3 Bft)
17.03.2013 07:45 -1,0 C 93 % 1004,4 hPa 0,0 l/m 8,8 km/h (2 Bft) O-NO 71 0 min 0,000 mm 0,0 UV-I 19 W/m -2,0 C -3,5 C 16,1 km/h (3 Bft)
17.03.2013 07:50 -0,9 C 93 % 1004,4 hPa 0,0 l/m 7,9 km/h (2 Bft) O 85 0 min 0,000 mm 0,0 UV-I 26 W/m -1,9 C -2,5 C 16,1 km/h (3 Bft)
17.03.2013 07:55 -0,9 C 93 % 1004,3 hPa 0,2 l/m 10,2 km/h (2 Bft) NO 53 0 min 0,000 mm 0,0 UV-I 26 W/m -1,9 C -4,6 C 17,7 km/h (3 Bft)
17.03.2013 08:00 -0,9 C 93 % 1004,4 hPa 0,0 l/m 8,9 km/h (2 Bft) O-SO 103 0 min 0,000 mm 0,0 UV-I 25 W/m -1,9 C -3,5 C 17,7 km/h (3 Bft)
17.03.2013 08:05 -0,9 C 93 % 1004,4 hPa 0,0 l/m 9,2 km/h (2 Bft) NO 56 0 min 0,000 mm 0,0 UV-I 32 W/m -1,9 C -3,7 C 16,1 km/h (3 Bft)
17.03.2013 08:10 -0,9 C 93 % 1004,4 hPa 0,0 l/m 9,4 km/h (2 Bft) O-SO 107 0 min 0,000 mm 0,0 UV-I 26 W/m -1,9 C -3,9 C 17,7 km/h (3 Bft)
17.03.2013 08:15 -0,9 C 93 % 1004,3 hPa 0,0 l/m 9,1 km/h (2 Bft) O 80 0 min 0,000 mm 0,0 UV-I 35 W/m -1,9 C -3,6 C 17,7 km/h (3 Bft)
17.03.2013 08:20 -0,9 C 93 % 1004,3 hPa 0,0 l/m 10,5 km/h (2 Bft) NO 51 0 min 0,000 mm 0,0 UV-I 30 W/m -1,9 C -4,9 C 17,7 km/h (3 Bft)
17.03.2013 08:25 -0,9 C 93 % 1004,2 hPa 0,0 l/m 9,3 km/h (2 Bft) NO 49 0 min 0,000 mm 0,0 UV-I 30 W/m -1,9 C -3,8 C 16,1 km/h (3 Bft)
17.03.2013 08:30 -0,9 C 93 % 1004,2 hPa 0,0 l/m 9,9 km/h (2 Bft) O-NO 74 0 min 0,000 mm 0,0 UV-I 23 W/m -1,9 C -4,4 C 17,7 km/h (3 Bft)
17.03.2013 08:35 -0,9 C 93 % 1004,1 hPa 0,0 l/m 7,5 km/h (2 Bft) O-NO 58 0 min 0,000 mm 0,0 UV-I 25 W/m -1,9 C -2,1 C 16,1 km/h (3 Bft)
17.03.2013 08:40 -0,9 C 93 % 1004,1 hPa 0,0 l/m 10,4 km/h (2 Bft) O-NO 65 0 min 0,000 mm 0,0 UV-I 30 W/m -1,9 C -4,8 C 17,7 km/h (3 Bft)
17.03.2013 08:45 -0,9 C 93 % 1004,1 hPa 0,0 l/m 9,9 km/h (2 Bft) O-NO 71 0 min 0,000 mm 0,0 UV-I 42 W/m -1,9 C -4,4 C 16,1 km/h (3 Bft)
17.03.2013 08:50 -0,9 C 94 % 1004,1 hPa 0,2 l/m 8,1 km/h (2 Bft) O-NO 66 0 min 0,000 mm 0,0 UV-I 46 W/m -1,7 C -2,7 C 16,1 km/h (3 Bft)
17.03.2013 08:55 -0,9 C 94 % 1004,1 hPa 0,0 l/m 5,5 km/h (1 Bft) O-NO 65 0 min 0,000 mm 0,0 UV-I 42 W/m -1,7 C -0,9 C 12,9 km/h (3 Bft)
17.03.2013 09:00 -0,9 C 94 % 1004,0 hPa 0,0 l/m 8,5 km/h (2 Bft) NO 40 0 min 0,000 mm 0,0 UV-I 54 W/m -1,7 C -3,1 C 17,7 km/h (3 Bft)
17.03.2013 09:05 -0,9 C 94 % 1004,1 hPa 0,0 l/m 10,4 km/h (2 Bft) NO 48 0 min 0,025 mm 0,0 UV-I 51 W/m -1,7 C -4,8 C 20,9 km/h (4 Bft)
17.03.2013 09:10 -0,9 C 94 % 1004,0 hPa 0,0 l/m 8,7 km/h (2 Bft) NO 50 0 min 0,000 mm 0,0 UV-I 62 W/m -1,7 C -3,3 C 17,7 km/h (3 Bft)
17.03.2013 09:15 -0,9 C 94 % 1004,0 hPa 0,0 l/m 9,0 km/h (2 Bft) O-NO 69 0 min 0,000 mm 0,0 UV-I 60 W/m -1,7 C -3,6 C 17,7 km/h (3 Bft)
17.03.2013 09:20 -0,9 C 94 % 1004,0 hPa 0,0 l/m 9,3 km/h (2 Bft) O-NO 72 0 min 0,000 mm 0,0 UV-I 69 W/m -1,7 C -3,8 C 16,1 km/h (3 Bft)
17.03.2013 09:25 -0,9 C 94 % 1003,9 hPa 0,0 l/m 10,5 km/h (2 Bft) NO 51 0 min 0,000 mm 0,0 UV-I 86 W/m -1,7 C -4,9 C 20,9 km/h (4 Bft)
17.03.2013 09:30 -0,9 C 94 % 1003,8 hPa 0,0 l/m 9,7 km/h (2 Bft) NO 53 0 min 0,000 mm 0,0 UV-I 79 W/m -1,7 C -4,2 C 16,1 km/h (3 Bft)
17.03.2013 09:35 -0,9 C 94 % 1003,7 hPa 0,0 l/m 8,9 km/h (2 Bft) O 89 0 min 0,000 mm 0,0 UV-I 67 W/m -1,7 C -3,5 C 16,1 km/h (3 Bft)
17.03.2013 09:40 -0,9 C 94 % 1003,7 hPa 0,0 l/m 8,6 km/h (2 Bft) NO 36 0 min 0,000 mm 0,0 UV-I 67 W/m -1,7 C -3,2 C 17,7 km/h (3 Bft)
17.03.2013 09:45 -0,8 C 94 % 1003,7 hPa 0,2 l/m 5,7 km/h (1 Bft) O-NO 72 0 min 0,000 mm 0,0 UV-I 77 W/m -1,6 C -0,8 C 17,7 km/h (3 Bft)
17.03.2013 09:50 -0,8 C 94 % 1003,6 hPa 0,0 l/m 4,9 km/h (1 Bft) O-NO 71 0 min 0,000 mm 0,0 UV-I 72 W/m -1,6 C -0,8 C 12,9 km/h (3 Bft)
17.03.2013 09:55 -0,8 C 94 % 1003,5 hPa 0,2 l/m 9,9 km/h (2 Bft) O 87 0 min 0,000 mm 0,0 UV-I 90 W/m -1,6 C -4,2 C 17,7 km/h (3 Bft)
17.03.2013 10:00 -0,8 C 94 % 1003,4 hPa 0,0 l/m 8,9 km/h (2 Bft) O 88 0 min 0,000 mm 0,0 UV-I 118 W/m -1,6 C -3,4 C 16,1 km/h (3 Bft)
17.03.2013 10:05 -0,8 C 94 % 1003,3 hPa 0,0 l/m 6,9 km/h (2 Bft) O 94 0 min 0,026 mm 0,0 UV-I 100 W/m -1,6 C -1,3 C 14,5 km/h (3 Bft)
17.03.2013 10:10 -0,8 C 94 % 1003,3 hPa 0,2 l/m 7,6 km/h (2 Bft) O 82 0 min 0,000 mm 0,0 UV-I 95 W/m -1,6 C -2,1 C 14,5 km/h (3 Bft)
17.03.2013 10:15 -0,7 C 94 % 1003,3 hPa 0,0 l/m 8,0 km/h (2 Bft) O 94 0 min 0,000 mm 0,0 UV-I 88 W/m -1,5 C -2,4 C 14,5 km/h (3 Bft)
17.03.2013 10:20 -0,7 C 94 % 1003,3 hPa 0,2 l/m 9,0 km/h (2 Bft) O-NO 71 0 min 0,000 mm 0,0 UV-I 98 W/m -1,5 C -3,3 C 16,1 km/h (3 Bft)
17.03.2013 10:25 -0,7 C 94 % 1003,3 hPa 0,0 l/m 6,7 km/h (2 Bft) O-NO 57 0 min 0,000 mm 0,0 UV-I 121 W/m -1,5 C -1,0 C 14,5 km/h (3 Bft)
17.03.2013 10:30 -0,6 C 94 % 1003,1 hPa 0,0 l/m 7,9 km/h (2 Bft) O 84 0 min 0,000 mm 0,0 UV-I 114 W/m -1,4 C -2,2 C 16,1 km/h (3 Bft)
17.03.2013 10:35 -0,6 C 94 % 1003,0 hPa 0,0 l/m 8,4 km/h (2 Bft) O 85 0 min 0,000 mm 0,5 UV-I 169 W/m -1,4 C -2,7 C 16,1 km/h (3 Bft)
17.03.2013 10:40 -0,5 C 94 % 1003,0 hPa 0,0 l/m 7,5 km/h (2 Bft) O-NO 69 0 min 0,000 mm 0,6 UV-I 151 W/m -1,3 C -1,7 C 16,1 km/h (3 Bft)
17.03.2013 10:45 -0,4 C 94 % 1002,9 hPa 0,0 l/m 5,4 km/h (1 Bft) O 101 0 min 0,000 mm 0,6 UV-I 148 W/m -1,2 C -0,4 C 12,9 km/h (3 Bft)
17.03.2013 10:50 -0,3 C 94 % 1002,9 hPa 0,0 l/m 7,6 km/h (2 Bft) O-SO 109 0 min 0,000 mm 0,5 UV-I 114 W/m -1,1 C -1,6 C 14,5 km/h (3 Bft)
17.03.2013 10:55 -0,3 C 94 % 1002,9 hPa 0,0 l/m 7,6 km/h (2 Bft) NO 45 0 min 0,000 mm 0,5 UV-I 90 W/m -1,1 C -1,6 C 14,5 km/h (3 Bft)
17.03.2013 11:00 -0,3 C 94 % 1002,9 hPa 0,0 l/m 8,0 km/h (2 Bft) O-SO 105 0 min 0,000 mm 0,5 UV-I 69 W/m -1,1 C -2,0 C 16,1 km/h (3 Bft)
17.03.2013 11:05 -0,3 C 94 % 1002,9 hPa 0,2 l/m 6,6 km/h (2 Bft) NO 55 0 min 0,051 mm 0,5 UV-I 116 W/m -1,1 C -0,5 C 12,9 km/h (3 Bft)
17.03.2013 11:10 -0,2 C 94 % 1002,8 hPa 0,0 l/m 7,6 km/h (2 Bft) O-NO 61 0 min 0,000 mm 0,6 UV-I 156 W/m -1,0 C -1,5 C 14,5 km/h (3 Bft)
17.03.2013 11:15 -0,2 C 94 % 1002,9 hPa 0,0 l/m 6,5 km/h (2 Bft) O 87 0 min 0,000 mm 0,5 UV-I 144 W/m -1,0 C -0,3 C 14,5 km/h (3 Bft)
17.03.2013 11:20 -0,1 C 95 % 1002,9 hPa 0,0 l/m 6,8 km/h (2 Bft) O 96 0 min 0,000 mm 0,5 UV-I 104 W/m -0,8 C -0,5 C 12,9 km/h (3 Bft)
17.03.2013 11:25 -0,1 C 95 % 1002,8 hPa 0,0 l/m 8,6 km/h (2 Bft) O-NO 71 0 min 0,000 mm 0,5 UV-I 95 W/m -0,8 C -2,3 C 24,1 km/h (4 Bft)
17.03.2013 11:30 0,0 C 95 % 1002,7 hPa 0,0 l/m 9,5 km/h (2 Bft) O-SO 113 0 min 0,000 mm 0,5 UV-I 93 W/m -0,7 C -3,0 C 16,1 km/h (3 Bft)
17.03.2013 11:35 0,0 C 95 % 1002,7 hPa 0,0 l/m 11,7 km/h (2 Bft) O 100 0 min 0,000 mm 0,5 UV-I 132 W/m -0,7 C -4,8 C 19,3 km/h (3 Bft)
17.03.2013 11:40 0,1 C 94 % 1002,7 hPa 0,0 l/m 9,9 km/h (2 Bft) O 94 0 min 0,000 mm 0,6 UV-I 139 W/m -0,7 C -3,3 C 17,7 km/h (3 Bft)
17.03.2013 11:45 0,1 C 94 % 1002,7 hPa 0,0 l/m 9,7 km/h (2 Bft) O 97 0 min 0,000 mm 0,6 UV-I 120 W/m -0,7 C -3,1 C 17,7 km/h (3 Bft)
17.03.2013 11:50 0,1 C 94 % 1002,6 hPa 0,0 l/m 9,0 km/h (2 Bft) O-SO 113 0 min 0,000 mm 0,6 UV-I 120 W/m -0,7 C -2,5 C 16,1 km/h (3 Bft)
17.03.2013 11:55 0,2 C 94 % 1002,5 hPa 0,0 l/m 12,5 km/h (3 Bft) O-SO 104 0 min 0,000 mm 0,6 UV-I 141 W/m -0,6 C -5,1 C 22,5 km/h (4 Bft)
17.03.2013 12:00 0,2 C 94 % 1002,5 hPa 0,0 l/m 9,4 km/h (2 Bft) O 92 0 min 0,000 mm 0,8 UV-I 206 W/m -0,6 C -2,7 C 14,5 km/h (3 Bft)
17.03.2013 12:05 0,2 C 94 % 1002,4 hPa 0,0 l/m 7,1 km/h (2 Bft) NO 53 0 min 0,050 mm 0,8 UV-I 171 W/m -0,6 C -0,5 C 14,5 km/h (3 Bft)
17.03.2013 12:10 0,2 C 94 % 1002,4 hPa 0,0 l/m 10,5 km/h (2 Bft) O 84 0 min 0,000 mm 0,6 UV-I 113 W/m -0,6 C -3,6 C 17,7 km/h (3 Bft)
17.03.2013 12:15 0,2 C 94 % 1002,3 hPa 0,2 l/m 8,6 km/h (2 Bft) O-SO 107 0 min 0,000 mm 0,7 UV-I 139 W/m -0,6 C -2,0 C 14,5 km/h (3 Bft)
17.03.2013 12:20 0,2 C 94 % 1002,0 hPa 0,0 l/m 11,9 km/h (2 Bft) O-NO 70 0 min 0,000 mm 0,7 UV-I 165 W/m -0,6 C -4,7 C 17,7 km/h (3 Bft)
17.03.2013 12:25 0,2 C 94 % 1002,1 hPa 0,0 l/m 10,8 km/h (2 Bft) O 81 0 min 0,000 mm 0,5 UV-I 97 W/m -0,6 C -3,9 C 17,7 km/h (3 Bft)
17.03.2013 12:30 0,1 C 94 % 1002,3 hPa 0,0 l/m 12,6 km/h (3 Bft) O-SO 106 0 min 0,000 mm 0,6 UV-I 134 W/m -0,7 C -5,3 C 20,9 km/h (4 Bft)
17.03.2013 12:35 0,1 C 94 % 1002,3 hPa 0,0 l/m 8,7 km/h (2 Bft) O 81 0 min 0,000 mm 0,5 UV-I 105 W/m -0,7 C -2,2 C 17,7 km/h (3 Bft)
17.03.2013 12:40 0,1 C 94 % 1002,2 hPa 0,0 l/m 7,6 km/h (2 Bft) O 84 0 min 0,000 mm 0,5 UV-I 97 W/m -0,7 C -1,1 C 14,5 km/h (3 Bft)
17.03.2013 12:45 0,1 C 94 % 1002,1 hPa 0,0 l/m 9,0 km/h (2 Bft) O-NO 61 0 min 0,000 mm 0,0 UV-I 39 W/m -0,7 C -2,5 C 16,1 km/h (3 Bft)
17.03.2013 12:50 0,1 C 94 % 1002,0 hPa 0,0 l/m 8,2 km/h (2 Bft) O-SO 115 0 min 0,000 mm 0,0 UV-I 37 W/m -0,7 C -1,7 C 16,1 km/h (3 Bft)
17.03.2013 12:55 0,1 C 94 % 1002,0 hPa 0,0 l/m 7,4 km/h (2 Bft) O 81 0 min 0,000 mm 0,0 UV-I 63 W/m -0,7 C -0,9 C 12,9 km/h (3 Bft)
17.03.2013 13:00 0,1 C 94 % 1001,9 hPa 0,0 l/m 8,2 km/h (2 Bft) O-NO 76 0 min 0,000 mm 0,0 UV-I 44 W/m -0,7 C -1,7 C 16,1 km/h (3 Bft)
17.03.2013 13:05 0,1 C 94 % 1001,7 hPa 0,0 l/m 7,4 km/h (2 Bft) O-SO 106 0 min 0,051 mm 0,0 UV-I 49 W/m -0,7 C -0,9 C 14,5 km/h (3 Bft)
17.03.2013 13:10 0,1 C 94 % 1001,6 hPa 0,0 l/m 11,6 km/h (2 Bft) NO 48 0 min 0,000 mm 0,5 UV-I 98 W/m -0,7 C -4,6 C 17,7 km/h (3 Bft)
17.03.2013 13:15 0,1 C 94 % 1001,7 hPa 0,0 l/m 7,8 km/h (2 Bft) O 89 0 min 0,000 mm 0,0 UV-I 65 W/m -0,7 C -1,3 C 12,9 km/h (3 Bft)
17.03.2013 13:20 0,2 C 94 % 1001,7 hPa 0,0 l/m 8,5 km/h (2 Bft) O 81 0 min 0,000 mm 0,0 UV-I 62 W/m -0,6 C -1,9 C 16,1 km/h (3 Bft)
17.03.2013 13:25 0,2 C 94 % 1001,8 hPa 0,0 l/m 9,1 km/h (2 Bft) O 87 0 min 0,000 mm 0,0 UV-I 56 W/m -0,6 C -2,5 C 16,1 km/h (3 Bft)
17.03.2013 13:30 0,2 C 94 % 1001,7 hPa 0,0 l/m 8,7 km/h (2 Bft) O-SO 103 0 min 0,000 mm 0,0 UV-I 63 W/m -0,6 C -2,1 C 16,1 km/h (3 Bft)
17.03.2013 13:35 0,2 C 94 % 1001,7 hPa 0,0 l/m 6,2 km/h (2 Bft) O-NO 59 0 min 0,000 mm 0,0 UV-I 65 W/m -0,6 C 0,2 C 14,5 km/h (3 Bft)
17.03.2013 13:40 0,2 C 94 % 1001,6 hPa 0,0 l/m 7,5 km/h (2 Bft) O 86 0 min 0,000 mm 0,5 UV-I 69 W/m -0,6 C -0,9 C 12,9 km/h (3 Bft)
17.03.2013 13:45 0,3 C 94 % 1001,6 hPa 0,0 l/m 7,1 km/h (2 Bft) O-NO 72 0 min 0,000 mm 0,0 UV-I 69 W/m -0,5 C -0,4 C 16,1 km/h (3 Bft)
17.03.2013 13:50 0,3 C 94 % 1001,5 hPa 0,0 l/m 11,5 km/h (2 Bft) O 100 0 min 0,000 mm 0,0 UV-I 76 W/m -0,5 C -4,3 C 20,9 km/h (4 Bft)
17.03.2013 13:55 0,3 C 94 % 1001,4 hPa 0,0 l/m 10,0 km/h (2 Bft) O-SO 105 0 min 0,000 mm 0,5 UV-I 83 W/m -0,5 C -3,1 C 20,9 km/h (4 Bft)
17.03.2013 14:00 0,3 C 94 % 1001,3 hPa 0,0 l/m 7,3 km/h (2 Bft) NO 56 0 min 0,000 mm 0,5 UV-I 93 W/m -0,5 C -0,6 C 16,1 km/h (3 Bft)
17.03.2013 14:05 0,3 C 94 % 1001,2 hPa 0,0 l/m 10,7 km/h (2 Bft) O 89 0 min 0,026 mm 0,5 UV-I 95 W/m -0,5 C -3,7 C 17,7 km/h (3 Bft)
17.03.2013 14:10 0,3 C 94 % 1001,1 hPa 0,0 l/m 8,8 km/h (2 Bft) O-NO 63 0 min 0,000 mm 0,0 UV-I 44 W/m -0,5 C -2,1 C 16,1 km/h (3 Bft)
17.03.2013 14:15 0,3 C 94 % 1000,8 hPa 0,0 l/m 8,7 km/h (2 Bft) O 96 0 min 0,000 mm 0,5 UV-I 62 W/m -0,5 C -2,0 C 16,1 km/h (3 Bft)
17.03.2013 14:20 0,4 C 94 % 1000,8 hPa 0,0 l/m 9,9 km/h (2 Bft) O-NO 57 0 min 0,000 mm 0,5 UV-I 86 W/m -0,5 C -2,9 C 19,3 km/h (3 Bft)
17.03.2013 14:25 0,4 C 94 % 1000,7 hPa 0,0 l/m 9,1 km/h (2 Bft) O 98 0 min 0,000 mm 0,5 UV-I 90 W/m -0,5 C -2,2 C 16,1 km/h (3 Bft)
17.03.2013 14:30 0,4 C 94 % 1000,7 hPa 0,0 l/m 8,4 km/h (2 Bft) O-NO 68 0 min 0,000 mm 0,5 UV-I 81 W/m -0,5 C -1,6 C 17,7 km/h (3 Bft)
17.03.2013 14:35 0,4 C 94 % 1000,7 hPa 0,0 l/m 7,9 km/h (2 Bft) O-SO 115 0 min 0,000 mm 0,0 UV-I 76 W/m -0,5 C -1,1 C 16,1 km/h (3 Bft)
17.03.2013 14:40 0,5 C 94 % 1000,6 hPa 0,0 l/m 7,0 km/h (2 Bft) O-NO 65 0 min 0,000 mm 0,0 UV-I 74 W/m -0,4 C -0,1 C 14,5 km/h (3 Bft)
17.03.2013 14:45 0,6 C 94 % 1000,5 hPa 0,0 l/m 7,8 km/h (2 Bft) N-NO 32 0 min 0,000 mm 0,0 UV-I 70 W/m -0,3 C -0,8 C 12,9 km/h (3 Bft)
17.03.2013 14:50 0,6 C 94 % 1000,5 hPa 0,0 l/m 8,0 km/h (2 Bft) O 100 0 min 0,000 mm 0,0 UV-I 83 W/m -0,3 C -1,0 C 14,5 km/h (3 Bft)
17.03.2013 14:55 0,6 C 95 % 1000,5 hPa 0,0 l/m 5,4 km/h (1 Bft) O 83 0 min 0,000 mm 0,0 UV-I 83 W/m -0,1 C 0,6 C 12,9 km/h (3 Bft)
17.03.2013 15:00 0,7 C 95 % 1000,5 hPa 0,0 l/m 6,8 km/h (2 Bft) O-SO 119 0 min 0,000 mm 0,0 UV-I 67 W/m -0,0 C 0,3 C 12,9 km/h (3 Bft)
17.03.2013 15:05 0,7 C 95 % 1000,4 hPa 0,0 l/m 7,1 km/h (2 Bft) O 95 0 min 0,025 mm 0,0 UV-I 51 W/m -0,0 C -0,0 C 12,9 km/h (3 Bft)
17.03.2013 15:10 0,7 C 94 % 1000,4 hPa 0,0 l/m 7,3 km/h (2 Bft) O-NO 67 0 min 0,000 mm 0,0 UV-I 70 W/m -0,2 C -0,2 C 14,5 km/h (3 Bft)
17.03.2013 15:15 0,7 C 94 % 1000,3 hPa 0,0 l/m 7,0 km/h (2 Bft) O-NO 60 0 min 0,000 mm 0,0 UV-I 69 W/m -0,2 C 0,1 C 12,9 km/h (3 Bft)
17.03.2013 15:20 0,7 C 94 % 1000,2 hPa 0,0 l/m 6,9 km/h (2 Bft) NO 56 0 min 0,000 mm 0,0 UV-I 60 W/m -0,2 C 0,2 C 14,5 km/h (3 Bft)
17.03.2013 15:25 0,7 C 94 % 1000,1 hPa 0,0 l/m 8,5 km/h (2 Bft) O-NO 59 0 min 0,000 mm 0,0 UV-I 62 W/m -0,2 C -1,4 C 16,1 km/h (3 Bft)
17.03.2013 15:30 0,7 C 94 % 999,9 hPa 0,0 l/m 8,0 km/h (2 Bft) O-NO 63 0 min 0,000 mm 0,0 UV-I 63 W/m -0,2 C -0,9 C 14,5 km/h (3 Bft)
17.03.2013 15:35 0,7 C 94 % 999,9 hPa 0,0 l/m 8,2 km/h (2 Bft) O-NO 57 0 min 0,000 mm 0,0 UV-I 74 W/m -0,2 C -1,1 C 17,7 km/h (3 Bft)
17.03.2013 15:40 0,8 C 94 % 999,9 hPa 0,0 l/m 8,2 km/h (2 Bft) O-NO 76 0 min 0,000 mm 0,0 UV-I 63 W/m -0,1 C -1,0 C 14,5 km/h (3 Bft)
17.03.2013 15:45 0,8 C 94 % 999,7 hPa 0,0 l/m 6,6 km/h (2 Bft) O-NO 62 0 min 0,000 mm 0,0 UV-I 62 W/m -0,1 C 0,6 C 14,5 km/h (3 Bft)
17.03.2013 15:50 0,8 C 95 % 999,7 hPa 0,0 l/m 7,5 km/h (2 Bft) O-NO 69 0 min 0,000 mm 0,0 UV-I 65 W/m 0,1 C -0,3 C 14,5 km/h (3 Bft)
17.03.2013 15:55 0,9 C 94 % 999,7 hPa 0,0 l/m 7,7 km/h (2 Bft) NO 36 0 min 0,000 mm 0,0 UV-I 60 W/m 0,0 C -0,4 C 14,5 km/h (3 Bft)
17.03.2013 16:00 0,9 C 94 % 999,6 hPa 0,0 l/m 7,6 km/h (2 Bft) O-NO 65 0 min 0,000 mm 0,0 UV-I 58 W/m 0,0 C -0,3 C 12,9 km/h (3 Bft)
17.03.2013 16:05 0,9 C 94 % 999,6 hPa 0,0 l/m 5,5 km/h (1 Bft) O-NO 63 0 min 0,025 mm 0,0 UV-I 47 W/m 0,0 C 0,9 C 11,3 km/h (2 Bft)
17.03.2013 16:10 0,9 C 94 % 999,5 hPa 0,0 l/m 6,0 km/h (2 Bft) O-NO 57 0 min 0,000 mm 0,0 UV-I 46 W/m 0,0 C 0,9 C 12,9 km/h (3 Bft)
17.03.2013 16:15 1,0 C 94 % 999,5 hPa 0,0 l/m 7,0 km/h (2 Bft) O-NO 71 0 min 0,000 mm 0,0 UV-I 51 W/m 0,1 C 0,4 C 14,5 km/h (3 Bft)
17.03.2013 16:20 1,1 C 94 % 999,3 hPa 0,0 l/m 8,1 km/h (2 Bft) O 101 0 min 0,000 mm 0,0 UV-I 47 W/m 0,2 C -0,6 C 14,5 km/h (3 Bft)
17.03.2013 16:25 1,1 C 94 % 999,3 hPa 0,0 l/m 6,3 km/h (2 Bft) NO 52 0 min 0,000 mm 0,0 UV-I 39 W/m 0,2 C 1,1 C 11,3 km/h (2 Bft)
17.03.2013 16:30 1,1 C 94 % 999,3 hPa 0,0 l/m 6,3 km/h (2 Bft) O 92 0 min 0,000 mm 0,0 UV-I 40 W/m 0,2 C 1,1 C 12,9 km/h (3 Bft)
17.03.2013 16:35 1,2 C 94 % 999,2 hPa 0,0 l/m 5,9 km/h (2 Bft) O-NO 74 0 min 0,000 mm 0,0 UV-I 35 W/m 0,3 C 1,2 C 11,3 km/h (2 Bft)
17.03.2013 16:40 1,2 C 94 % 999,3 hPa 0,0 l/m 5,5 km/h (1 Bft) O-NO 63 0 min 0,000 mm 0,0 UV-I 39 W/m 0,3 C 1,2 C 11,3 km/h (2 Bft)
17.03.2013 16:45 1,2 C 94 % 999,1 hPa 0,0 l/m 5,0 km/h (1 Bft) NO 49 0 min 0,000 mm 0,0 UV-I 35 W/m 0,3 C 1,2 C 12,9 km/h (3 Bft)
17.03.2013 16:50 1,2 C 94 % 999,1 hPa 0,0 l/m 7,4 km/h (2 Bft) O-NO 61 0 min 0,000 mm 0,0 UV-I 42 W/m 0,3 C 0,2 C 14,5 km/h (3 Bft)
17.03.2013 16:55 1,3 C 94 % 999,0 hPa 0,0 l/m 8,5 km/h (2 Bft) O 79 0 min 0,000 mm 0,0 UV-I 42 W/m 0,4 C -0,7 C 14,5 km/h (3 Bft)
17.03.2013 17:00 1,3 C 94 % 999,1 hPa 0,0 l/m 6,6 km/h (2 Bft) O-NO 60 0 min 0,000 mm 0,0 UV-I 35 W/m 0,4 C 1,1 C 16,1 km/h (3 Bft)
17.03.2013 17:05 1,3 C 94 % 998,9 hPa 0,0 l/m 8,2 km/h (2 Bft) O-NO 74 0 min 0,026 mm 0,0 UV-I 32 W/m 0,4 C -0,5 C 16,1 km/h (3 Bft)
17.03.2013 17:10 1,4 C 94 % 998,9 hPa 0,0 l/m 6,8 km/h (2 Bft) O-NO 70 0 min 0,000 mm 0,0 UV-I 23 W/m 0,5 C 1,0 C 16,1 km/h (3 Bft)
17.03.2013 17:15 1,4 C 94 % 998,8 hPa 0,0 l/m 6,2 km/h (2 Bft) NO 56 0 min 0,000 mm 0,0 UV-I 19 W/m 0,5 C 1,4 C 12,9 km/h (3 Bft)
17.03.2013 17:20 1,4 C 94 % 998,8 hPa 0,0 l/m 7,9 km/h (2 Bft) NO 51 0 min 0,000 mm 0,0 UV-I 18 W/m 0,5 C -0,1 C 12,9 km/h (3 Bft)
17.03.2013 17:25 1,4 C 94 % 998,8 hPa 0,0 l/m 6,1 km/h (2 Bft) NO 51 0 min 0,000 mm 0,0 UV-I 12 W/m 0,5 C 1,4 C 14,5 km/h (3 Bft)
17.03.2013 17:30 1,5 C 94 % 998,6 hPa 0,0 l/m 5,6 km/h (1 Bft) NO 51 0 min 0,000 mm 0,0 UV-I 12 W/m 0,6 C 1,5 C 17,7 km/h (3 Bft)
17.03.2013 17:35 1,5 C 94 % 998,7 hPa 0,0 l/m 6,3 km/h (2 Bft) O-NO 60 0 min 0,000 mm 0,0 UV-I 11 W/m 0,6 C 1,5 C 12,9 km/h (3 Bft)
17.03.2013 17:40 1,6 C 94 % 998,7 hPa 0,0 l/m 6,6 km/h (2 Bft) O-NO 78 0 min 0,000 mm 0,0 UV-I 11 W/m 0,7 C 1,4 C 11,3 km/h (2 Bft)
17.03.2013 17:45 1,6 C 94 % 998,7 hPa 0,0 l/m 6,9 km/h (2 Bft) NO 44 0 min 0,000 mm 0,0 UV-I 11 W/m 0,7 C 1,1 C 16,1 km/h (3 Bft)
17.03.2013 17:50 1,6 C 94 % 998,7 hPa 0,0 l/m 6,9 km/h (2 Bft) NO 55 0 min 0,000 mm 0,0 UV-I 7 W/m 0,7 C 1,1 C 14,5 km/h (3 Bft)
17.03.2013 17:55 1,6 C 94 % 998,7 hPa 0,0 l/m 6,9 km/h (2 Bft) O-NO 61 0 min 0,000 mm 0,0 UV-I 5 W/m 0,7 C 1,1 C 14,5 km/h (3 Bft)
17.03.2013 18:00 1,7 C 94 % 998,6 hPa 0,0 l/m 6,7 km/h (2 Bft) O-NO 75 0 min 0,000 mm 0,0 UV-I 5 W/m 0,8 C 1,4 C 16,1 km/h (3 Bft)
17.03.2013 18:05 1,6 C 94 % 998,6 hPa 0,0 l/m 5,8 km/h (2 Bft) O-NO 65 0 min 0,000 mm 0,0 UV-I 0 W/m 0,7 C 1,6 C 12,9 km/h (3 Bft)
17.03.2013 18:10 1,6 C 94 % 998,6 hPa 0,0 l/m 4,1 km/h (1 Bft) O-NO 57 0 min 0,000 mm 0,0 UV-I 0 W/m 0,7 C 1,6 C 12,9 km/h (3 Bft)
17.03.2013 18:15 1,7 C 94 % 998,6 hPa 0,0 l/m 6,7 km/h (2 Bft) O-NO 65 0 min 0,000 mm 0,0 UV-I 0 W/m 0,8 C 1,4 C 12,9 km/h (3 Bft)
17.03.2013 18:20 1,7 C 94 % 998,6 hPa 0,0 l/m 7,2 km/h (2 Bft) O-NO 67 0 min 0,000 mm 0,0 UV-I 0 W/m 0,8 C 0,9 C 14,5 km/h (3 Bft)
17.03.2013 18:25 1,7 C 94 % 998,6 hPa 0,0 l/m 7,6 km/h (2 Bft) O 87 0 min 0,000 mm 0,0 UV-I 0 W/m 0,8 C 0,5 C 16,1 km/h (3 Bft)
17.03.2013 18:30 1,7 C 94 % 998,4 hPa 0,0 l/m 8,4 km/h (2 Bft) S-SO 148 0 min 0,000 mm 0,0 UV-I 0 W/m 0,8 C -0,2 C 16,1 km/h (3 Bft)
17.03.2013 18:35 1,8 C 94 % 998,4 hPa 0,0 l/m 8,8 km/h (2 Bft) NO 54 0 min 0,000 mm 0,0 UV-I 0 W/m 0,9 C -0,5 C 17,7 km/h (3 Bft)
17.03.2013 18:40 1,8 C 93 % 998,4 hPa 0,0 l/m 8,9 km/h (2 Bft) O 90 0 min 0,000 mm 0,0 UV-I 0 W/m 0,8 C -0,6 C 17,7 km/h (3 Bft)
17.03.2013 18:45 1,8 C 93 % 998,4 hPa 0,0 l/m 8,6 km/h (2 Bft) NO 51 0 min 0,000 mm 0,0 UV-I 0 W/m 0,8 C -0,3 C 16,1 km/h (3 Bft)
17.03.2013 18:50 1,9 C 94 % 998,4 hPa 0,0 l/m 7,5 km/h (2 Bft) O 96 0 min 0,000 mm 0,0 UV-I 0 W/m 1,0 C 0,8 C 14,5 km/h (3 Bft)
17.03.2013 18:55 1,9 C 94 % 998,4 hPa 0,0 l/m 9,2 km/h (2 Bft) O 79 0 min 0,000 mm 0,0 UV-I 0 W/m 1,0 C -0,7 C 16,1 km/h (3 Bft)
17.03.2013 19:00 1,9 C 94 % 998,3 hPa 0,2 l/m 8,8 km/h (2 Bft) O 87 0 min 0,000 mm 0,0 UV-I 0 W/m 1,0 C -0,4 C 16,1 km/h (3 Bft)
17.03.2013 19:05 1,9 C 94 % 998,3 hPa 0,0 l/m 5,6 km/h (1 Bft) O 91 0 min 0,000 mm 0,0 UV-I 0 W/m 1,0 C 1,9 C 9,7 km/h (2 Bft)
17.03.2013 19:10 1,8 C 94 % 998,3 hPa 0,0 l/m 7,7 km/h (2 Bft) O 98 0 min 0,000 mm 0,0 UV-I 0 W/m 0,9 C 0,5 C 14,5 km/h (3 Bft)
17.03.2013 19:15 1,8 C 94 % 998,2 hPa 0,0 l/m 6,7 km/h (2 Bft) NO 51 0 min 0,000 mm 0,0 UV-I 0 W/m 0,9 C 1,5 C 12,9 km/h (3 Bft)
17.03.2013 19:20 1,8 C 94 % 998,2 hPa 0,2 l/m 8,4 km/h (2 Bft) O 83 0 min 0,000 mm 0,0 UV-I 0 W/m 0,9 C -0,1 C 17,7 km/h (3 Bft)
17.03.2013 19:25 1,7 C 94 % 998,2 hPa 0,0 l/m 8,7 km/h (2 Bft) NO 56 0 min 0,000 mm 0,0 UV-I 0 W/m 0,8 C -0,5 C 16,1 km/h (3 Bft)
17.03.2013 19:30 1,7 C 94 % 998,1 hPa 0,2 l/m 5,6 km/h (1 Bft) O-NO 61 0 min 0,000 mm 0,0 UV-I 0 W/m 0,8 C 1,7 C 11,3 km/h (2 Bft)
17.03.2013 19:35 1,7 C 94 % 998,1 hPa 0,0 l/m 8,0 km/h (2 Bft) O-SO 111 0 min 0,000 mm 0,0 UV-I 0 W/m 0,8 C 0,1 C 16,1 km/h (3 Bft)
17.03.2013 19:40 1,7 C 94 % 998,0 hPa 0,2 l/m 4,4 km/h (1 Bft) O-NO 63 0 min 0,000 mm 0,0 UV-I 0 W/m 0,8 C 1,7 C 9,7 km/h (2 Bft)
17.03.2013 19:45 1,7 C 94 % 997,9 hPa 0,0 l/m 3,8 km/h (1 Bft) NO 52 0 min 0,000 mm 0,0 UV-I 0 W/m 0,8 C 1,7 C 8,0 km/h (2 Bft)
17.03.2013 19:50 1,7 C 94 % 997,8 hPa 0,0 l/m 6,3 km/h (2 Bft) NO 55 0 min 0,000 mm 0,0 UV-I 0 W/m 0,8 C 1,7 C 11,3 km/h (2 Bft)
17.03.2013 19:55 1,7 C 94 % 997,7 hPa 0,0 l/m 7,4 km/h (2 Bft) O 96 0 min 0,000 mm 0,0 UV-I 0 W/m 0,8 C 0,7 C 12,9 km/h (3 Bft)
17.03.2013 20:00 1,8 C 94 % 997,6 hPa 0,2 l/m 8,6 km/h (2 Bft) NO 55 0 min 0,000 mm 0,0 UV-I 0 W/m 0,9 C -0,3 C 19,3 km/h (3 Bft)
17.03.2013 20:05 1,8 C 94 % 997,7 hPa 0,0 l/m 7,0 km/h (2 Bft) O-NO 73 0 min 0,000 mm 0,0 UV-I 0 W/m 0,9 C 1,2 C 16,1 km/h (3 Bft)
17.03.2013 20:10 1,8 C 95 % 997,6 hPa 0,0 l/m 8,3 km/h (2 Bft) O-NO 77 0 min 0,000 mm 0,0 UV-I 0 W/m 1,1 C -0,0 C 17,7 km/h (3 Bft)
17.03.2013 20:15 1,9 C 95 % 997,5 hPa 0,2 l/m 7,1 km/h (2 Bft) NO 54 0 min 0,000 mm 0,0 UV-I 0 W/m 1,2 C 1,2 C 16,1 km/h (3 Bft)
17.03.2013 20:20 1,9 C 95 % 997,6 hPa 0,0 l/m 7,1 km/h (2 Bft) O 99 0 min 0,000 mm 0,0 UV-I 0 W/m 1,2 C 1,2 C 16,1 km/h (3 Bft)
17.03.2013 20:25 1,9 C 95 % 997,6 hPa 0,2 l/m 6,7 km/h (2 Bft) O-NO 59 0 min 0,000 mm 0,0 UV-I 0 W/m 1,2 C 1,6 C 16,1 km/h (3 Bft)
17.03.2013 20:30 1,9 C 95 % 997,6 hPa 0,0 l/m 5,7 km/h (1 Bft) SO 138 0 min 0,000 mm 0,0 UV-I 0 W/m 1,2 C 1,9 C 14,5 km/h (3 Bft)
17.03.2013 20:35 1,9 C 95 % 997,6 hPa 0,2 l/m 5,8 km/h (2 Bft) O-SO 102 0 min 0,000 mm 0,0 UV-I 0 W/m 1,2 C 1,9 C 12,9 km/h (3 Bft)
17.03.2013 20:40 1,9 C 95 % 997,4 hPa 0,0 l/m 3,5 km/h (1 Bft) O-NO 59 0 min 0,000 mm 0,0 UV-I 0 W/m 1,2 C 1,9 C 9,7 km/h (2 Bft)
17.03.2013 20:45 1,9 C 95 % 997,4 hPa 0,0 l/m 5,6 km/h (1 Bft) NO 55 0 min 0,000 mm 0,0 UV-I 0 W/m 1,2 C 1,9 C 11,3 km/h (2 Bft)
17.03.2013 20:50 1,8 C 95 % 997,4 hPa 0,2 l/m 5,5 km/h (1 Bft) NO 45 0 min 0,000 mm 0,0 UV-I 0 W/m 1,1 C 1,8 C 12,9 km/h (3 Bft)
17.03.2013 20:55 1,8 C 94 % 997,4 hPa 0,0 l/m 5,1 km/h (1 Bft) O-SO 114 0 min 0,000 mm 0,0 UV-I 0 W/m 0,9 C 1,8 C 11,3 km/h (2 Bft)
17.03.2013 21:00 1,8 C 94 % 997,3 hPa 0,2 l/m 3,2 km/h (1 Bft) O 94 0 min 0,000 mm 0,0 UV-I 0 W/m 0,9 C 1,8 C 9,7 km/h (2 Bft)
17.03.2013 21:05 1,8 C 95 % 997,2 hPa 0,0 l/m 4,9 km/h (1 Bft) NO 54 0 min 0,000 mm 0,0 UV-I 0 W/m 1,1 C 1,8 C 9,7 km/h (2 Bft)
17.03.2013 21:10 1,9 C 95 % 997,2 hPa 0,2 l/m 4,3 km/h (1 Bft) O 79 0 min 0,000 mm 0,0 UV-I 0 W/m 1,2 C 1,9 C 11,3 km/h (2 Bft)
17.03.2013 21:15 1,9 C 95 % 997,1 hPa 0,0 l/m 2,2 km/h (1 Bft) O 82 0 min 0,000 mm 0,0 UV-I 0 W/m 1,2 C 1,9 C 6,4 km/h (2 Bft)
17.03.2013 21:20 1,9 C 94 % 997,0 hPa 0,0 l/m 4,2 km/h (1 Bft) O-NO 65 0 min 0,000 mm 0,0 UV-I 0 W/m 1,0 C 1,9 C 9,7 km/h (2 Bft)
17.03.2013 21:25 1,9 C 95 % 997,0 hPa 0,2 l/m 3,7 km/h (1 Bft) NO 51 0 min 0,000 mm 0,0 UV-I 0 W/m 1,2 C 1,9 C 8,0 km/h (2 Bft)
17.03.2013 21:30 1,9 C 95 % 996,9 hPa 0,0 l/m 6,0 km/h (2 Bft) O 97 0 min 0,000 mm 0,0 UV-I 0 W/m 1,2 C 1,9 C 14,5 km/h (3 Bft)
17.03.2013 21:35 2,0 C 95 % 996,9 hPa 0,0 l/m 6,4 km/h (2 Bft) O 88 0 min 0,000 mm 0,0 UV-I 0 W/m 1,3 C 2,0 C 17,7 km/h (3 Bft)
17.03.2013 21:40 2,1 C 95 % 996,9 hPa 0,0 l/m 4,6 km/h (1 Bft) O-NO 69 0 min 0,000 mm 0,0 UV-I 0 W/m 1,4 C 2,1 C 9,7 km/h (2 Bft)
17.03.2013 21:45 2,1 C 95 % 996,9 hPa 0,0 l/m 4,6 km/h (1 Bft) O 86 0 min 0,000 mm 0,0 UV-I 0 W/m 1,4 C 2,1 C 9,7 km/h (2 Bft)
17.03.2013 21:50 2,1 C 95 % 996,8 hPa 0,0 l/m 4,3 km/h (1 Bft) O-SO 104 0 min 0,000 mm 0,0 UV-I 0 W/m 1,4 C 2,1 C 11,3 km/h (2 Bft)
17.03.2013 21:55 2,1 C 95 % 996,8 hPa 0,0 l/m 6,2 km/h (2 Bft) O-SO 106 0 min 0,000 mm 0,0 UV-I 0 W/m 1,4 C 2,1 C 11,3 km/h (2 Bft)
17.03.2013 22:00 2,0 C 95 % 996,6 hPa 0,0 l/m 5,0 km/h (1 Bft) NO 56 0 min 0,000 mm 0,0 UV-I 0 W/m 1,3 C 2,0 C 9,7 km/h (2 Bft)
17.03.2013 22:05 2,0 C 95 % 996,4 hPa 0,0 l/m 6,6 km/h (2 Bft) NO 42 0 min 0,000 mm 0,0 UV-I 0 W/m 1,3 C 1,8 C 11,3 km/h (2 Bft)
17.03.2013 22:10 1,9 C 95 % 996,0 hPa 0,0 l/m 7,3 km/h (2 Bft) O 84 0 min 0,000 mm 0,0 UV-I 0 W/m 1,2 C 1,0 C 16,1 km/h (3 Bft)
17.03.2013 22:15 1,9 C 95 % 995,9 hPa 0,0 l/m 8,3 km/h (2 Bft) O-NO 60 0 min 0,000 mm 0,0 UV-I 0 W/m 1,2 C 0,1 C 14,5 km/h (3 Bft)
17.03.2013 22:20 1,9 C 95 % 996,1 hPa 0,0 l/m 7,5 km/h (2 Bft) O-NO 59 0 min 0,000 mm 0,0 UV-I 0 W/m 1,2 C 0,8 C 14,5 km/h (3 Bft)
17.03.2013 22:25 1,9 C 95 % 996,3 hPa 0,0 l/m 8,2 km/h (2 Bft) O-NO 63 0 min 0,000 mm 0,0 UV-I 0 W/m 1,2 C 0,2 C 16,1 km/h (3 Bft)
17.03.2013 22:30 1,9 C 95 % 996,4 hPa 0,0 l/m 7,2 km/h (2 Bft) NO 39 0 min 0,000 mm 0,0 UV-I 0 W/m 1,2 C 1,1 C 14,5 km/h (3 Bft)
17.03.2013 22:35 1,9 C 95 % 996,2 hPa 0,0 l/m 6,1 km/h (2 Bft) NO 51 0 min 0,000 mm 0,0 UV-I 0 W/m 1,2 C 1,9 C 11,3 km/h (2 Bft)
17.03.2013 22:40 2,0 C 95 % 995,9 hPa 0,0 l/m 7,9 km/h (2 Bft) O-NO 64 0 min 0,000 mm 0,0 UV-I 0 W/m 1,3 C 0,5 C 16,1 km/h (3 Bft)
17.03.2013 22:45 2,1 C 95 % 995,9 hPa 0,0 l/m 7,4 km/h (2 Bft) NO 56 0 min 0,000 mm 0,0 UV-I 0 W/m 1,4 C 1,1 C 14,5 km/h (3 Bft)
17.03.2013 22:50 2,2 C 95 % 996,1 hPa 0,0 l/m 8,1 km/h (2 Bft) O 82 0 min 0,000 mm 0,0 UV-I 0 W/m 1,5 C 0,6 C 16,1 km/h (3 Bft)
17.03.2013 22:55 2,2 C 95 % 996,1 hPa 0,0 l/m 4,1 km/h (1 Bft) O-NO 62 0 min 0,000 mm 0,0 UV-I 0 W/m 1,5 C 2,2 C 11,3 km/h (2 Bft)
17.03.2013 23:00 2,3 C 95 % 996,2 hPa 0,0 l/m 7,9 km/h (2 Bft) O 86 0 min 0,000 mm 0,0 UV-I 0 W/m 1,6 C 0,9 C 17,7 km/h (3 Bft)
17.03.2013 23:05 2,3 C 95 % 996,3 hPa 0,0 l/m 4,4 km/h (1 Bft) O 90 0 min 0,000 mm 0,0 UV-I 0 W/m 1,6 C 2,3 C 11,3 km/h (2 Bft)
17.03.2013 23:10 2,3 C 95 % 996,1 hPa 0,0 l/m 4,5 km/h (1 Bft) O-SO 118 0 min 0,000 mm 0,0 UV-I 0 W/m 1,6 C 2,3 C 11,3 km/h (2 Bft)
17.03.2013 23:15 2,4 C 95 % 996,1 hPa 0,0 l/m 5,1 km/h (1 Bft) O-SO 105 0 min 0,000 mm 0,0 UV-I 0 W/m 1,7 C 2,4 C 12,9 km/h (3 Bft)
17.03.2013 23:20 2,5 C 95 % 995,9 hPa 0,0 l/m 5,8 km/h (2 Bft) O-NO 69 0 min 0,000 mm 0,0 UV-I 0 W/m 1,8 C 2,5 C 12,9 km/h (3 Bft)
17.03.2013 23:25 2,5 C 95 % 995,9 hPa 0,0 l/m 4,9 km/h (1 Bft) O 96 0 min 0,000 mm 0,0 UV-I 0 W/m 1,8 C 2,5 C 14,5 km/h (3 Bft)
17.03.2013 23:30 2,6 C 95 % 995,9 hPa 0,0 l/m 6,8 km/h (2 Bft) O-NO 71 0 min 0,000 mm 0,0 UV-I 0 W/m 1,9 C 2,2 C 17,7 km/h (3 Bft)
17.03.2013 23:35 2,6 C 95 % 996,0 hPa 0,0 l/m 2,4 km/h (1 Bft) O-NO 74 0 min 0,000 mm 0,0 UV-I 0 W/m 1,9 C 2,6 C 9,7 km/h (2 Bft)
17.03.2013 23:40 2,6 C 95 % 996,1 hPa 0,0 l/m 1,9 km/h (1 Bft) SO 135 0 min 0,000 mm 0,0 UV-I 0 W/m 1,9 C 2,6 C 8,0 km/h (2 Bft)
17.03.2013 23:45 2,7 C 95 % 996,1 hPa 0,0 l/m 1,2 km/h (1 Bft) O-NO 71 0 min 0,000 mm 0,0 UV-I 0 W/m 2,0 C 2,7 C 4,8 km/h (1 Bft)
17.03.2013 23:50 2,7 C 95 % 996,1 hPa 0,0 l/m 0,8 km/h (0 Bft) O-NO 71 0 min 0,000 mm 0,0 UV-I 0 W/m 2,0 C 2,7 C 4,8 km/h (1 Bft)
17.03.2013 23:55 2,7 C 95 % 996,2 hPa 0,0 l/m 1,0 km/h (0 Bft) O 98 0 min 0,000 mm 0,0 UV-I 0 W/m 2,0 C 2,7 C 4,8 km/h (1 Bft)
_ Min-Zeit 06:45 00:00 22:15 - 03:55 - - - - - - 01:00 06:25 03:50
Minimum _ -1,2 C 56 % 995,9 hPa - 0,5 km/h (0 Bft) - - - - - - -5,8 C -5,3 C 3,2 km/h (1 Bft)
_ Max-Zeit 23:45 11:20 00:00 06:45 12:30 - - 00:00 11:05 12:00 12:00 23:45 23:45 11:25
Maximum _ 2,7 C 95 % 1008,2 hPa 0,2 l/m 12,6 km/h
O-SO (3 Bft)
- - 0 min 0,051 mm 0,8 UV-I 206 W/m 2,0 C 2,7 C 24,1 km/h
O (4 Bft)
Durchschnitt _ 0,8 C 88 % 1002,0 hPa #4,4 l/m 7,0 km/h (2 Bft) O-NO - #0 min. #0,432 mm 0,6 UV-I 67 W/m -1,2 C -0,4 C 14,2 km/h (3 Bft)